DH4SBM Weather Reports


Display with metric or nautical units.
time (UTC)temp
F
wind
direction
speed
MPH
gust
MPH
rain 1hr
in
rain 24hr
in
rain mn
in
humidity
%
barometer
mb
20260906220311 65 112 2.0 6.0 0.00 0.00 0.00 59 1024.2
20260906215311 65 68 1.0 2.0 0.00 0.00 0.00 60 1024.2
20260906214310 65 68 1.0 2.0 0.00 0.00 0.00 60 1024.5
20260906213310 66 68 2.0 3.0 0.00 0.00 0.00 60 1024.4
20260906212310 66 68 0.0 4.0 0.00 0.00 0.00 60 1024.4
20260906211310 66 0 0.0 0.0 0.00 0.00 0.00 59 1024.5
20260906210310 66 0 0.0 0.0 0.00 0.00 0.00 59 1024.5
20260906205312 67 112 0.0 2.0 0.00 0.00 0.00 58 1024.6
20260906204312 67 112 0.0 2.0 0.00 0.00 0.00 58 1024.6
20260906203311 67 112 0.0 3.0 0.00 0.00 0.00 58 1024.6
20260906202311 67 112 1.0 2.0 0.00 0.00 0.00 57 1024.5
20260906201311 67 112 1.0 3.0 0.00 0.00 0.00 57 1024.6
20260906200311 68 112 1.0 3.0 0.00 0.00 0.00 57 1024.5
20260906195311 68 90 1.0 4.0 0.00 0.00 0.00 57 1024.6
20260906194311 68 112 1.0 3.0 0.00 0.00 0.00 56 1024.6
20260906193311 69 112 1.0 3.0 0.00 0.00 0.00 56 1024.6
20260906192311 69 112 1.0 7.0 0.00 0.00 0.00 54 1024.6
20260906191310 69 112 2.0 8.0 0.00 0.00 0.00 54 1024.5
20260906190310 70 90 2.0 4.0 0.00 0.00 0.00 55 1024.5
20260906185310 71 68 2.0 5.0 0.00 0.00 0.00 54 1024.4
20260906184310 71 90 4.0 11.0 0.00 0.00 0.00 53 1024.4
20260906183310 72 90 4.0 9.0 0.00 0.00 0.00 52 1024.4
20260906182310 72 90 4.0 9.0 0.00 0.00 0.00 52 1024.3
20260906181310 73 90 4.0 8.0 0.00 0.00 0.00 51 1024.3
20260906180312 73 90 4.0 8.0 0.00 0.00 0.00 51 1024.4
20260906175312 74 90 4.0 9.0 0.00 0.00 0.00 50 1024.3
20260906174311 75 90 5.0 11.0 0.00 0.00 0.00 49 1024.3
20260906173311 75 90 4.0 8.0 0.00 0.00 0.00 49 1024.4
20260906172311 76 90 5.0 9.0 0.00 0.00 0.00 48 1024.3
20260906171311 76 90 5.0 10.0 0.00 0.00 0.00 47 1024.7
20260906170311 76 90 5.0 9.0 0.00 0.00 0.00 47 1024.6
20260906165311 76 90 4.0 9.0 0.00 0.00 0.00 46 1024.7
20260906164311 77 68 5.0 9.0 0.00 0.00 0.00 45 1024.7
20260906163311 77 68 5.0 9.0 0.00 0.00 0.00 44 1024.6
20260906162311 78 68 5.0 10.0 0.00 0.00 0.00 42 1024.6
20260906161310 78 68 5.0 11.0 0.00 0.00 0.00 42 1024.7
20260906160310 78 68 4.0 9.0 0.00 0.00 0.00 42 1024.7
20260906155310 78 68 6.0 11.0 0.00 0.00 0.00 41 1024.7
20260906154310 78 68 5.0 12.0 0.00 0.00 0.00 41 1024.7
20260906153310 78 68 4.0 11.0 0.00 0.00 0.00 41 1024.7
20260906152310 78 90 5.0 10.0 0.00 0.00 0.00 40 1024.8
20260906151312 79 90 4.0 9.0 0.00 0.00 0.00 40 1024.9
20260906150311 78 90 3.0 9.0 0.00 0.00 0.00 41 1024.9
20260906145311 78 90 4.0 11.0 0.00 0.00 0.00 41 1025.0
20260906144311 78 68 5.0 11.0 0.00 0.00 0.00 42 1025.1
20260906143311 78 45 5.0 10.0 0.00 0.00 0.00 42 1025.2
20260906142311 77 68 4.0 7.0 0.00 0.00 0.00 42 1025.3
20260906141311 77 22 5.0 11.0 0.00 0.00 0.00 42 1025.4
20260906140312 77 68 6.0 11.0 0.00 0.00 0.00 42 1025.4
20260906135312 78 68 6.0 11.0 0.00 0.00 0.00 41 1025.7
20260906134311 78 45 4.0 9.0 0.00 0.00 0.00 41 1025.6
20260906133311 78 68 4.0 10.0 0.00 0.00 0.00 41 1025.8
20260906132310 78 45 3.0 9.0 0.00 0.00 0.00 42 1026.1
20260906131310 77 68 5.0 12.0 0.00 0.00 0.00 42 1026.2
20260906130310 77 22 4.0 9.0 0.00 0.00 0.00 42 1026.2
20260906125310 77 45 5.0 9.0 0.00 0.00 0.00 43 1026.3
20260906124310 77 45 4.0 9.0 0.00 0.00 0.00 42 1026.6
20260906123310 76 338 3.0 9.0 0.00 0.00 0.00 46 1026.5
20260906122312 76 338 3.0 9.0 0.00 0.00 0.00 45 1026.6
20260906121311 75 22 4.0 6.0 0.00 0.00 0.00 45 1026.8
20260906120311 76 45 4.0 11.0 0.00 0.00 0.00 45 1026.9
20260906115311 75 338 1.0 6.0 0.00 0.00 0.00 46 1026.9
20260906114311 75 360 3.0 8.0 0.00 0.00 0.00 46 1027.0
20260906113311 75 22 4.0 8.0 0.00 0.00 0.00 46 1027.1
20260906112311 76 225 2.0 5.0 0.00 0.00 0.00 45 1027.3
20260906111311 76 202 2.0 7.0 0.00 0.00 0.00 46 1027.4
20260906110311 75 180 2.0 7.0 0.00 0.00 0.00 46 1027.4
20260906105311 74 68 2.0 6.0 0.00 0.00 0.00 49 1027.4
20260906104310 74 135 3.0 7.0 0.00 0.00 0.00 49 1027.4
20260906103310 74 135 2.0 8.0 0.00 0.00 0.00 49 1027.5
20260906102310 73 135 3.0 7.0 0.00 0.00 0.00 49 1027.6
20260906101310 73 112 3.0 9.0 0.00 0.00 0.00 51 1027.8
20260906100310 72 135 3.0 8.0 0.00 0.00 0.00 52 1028.0
20260906095310 72 158 3.0 12.0 0.00 0.00 0.00 54 1028.2
20260906094310 71 135 3.0 8.0 0.00 0.00 0.00 55 1028.3
20260906093310 70 112 3.0 8.0 0.00 0.00 0.00 56 1028.4
20260906092312 70 112 3.0 8.0 0.00 0.00 0.00 58 1028.5
20260906091312 69 90 2.0 8.0 0.00 0.00 0.00 59 1028.4
20260906090311 68 90 2.0 8.0 0.00 0.00 0.00 62 1028.5
20260906085311 67 68 3.0 5.0 0.00 0.00 0.00 64 1028.5
20260906084311 66 68 3.0 7.0 0.00 0.00 0.00 66 1028.4
20260906083311 65 68 3.0 9.0 0.00 0.00 0.00 66 1028.5
20260906082311 65 22 2.0 5.0 0.00 0.00 0.00 68 1028.4
20260906081311 64 45 2.0 4.0 0.00 0.00 0.00 71 1028.5
20260906080311 64 135 1.0 4.0 0.00 0.00 0.00 71 1028.5
20260906075311 62 180 1.0 4.0 0.00 0.00 0.00 74 1028.5
20260906074310 61 180 1.0 4.0 0.00 0.00 0.00 77 1028.5
20260906073310 60 180 0.0 3.0 0.00 0.00 0.00 78 1028.5
20260906072310 59 0 0.0 0.0 0.00 0.00 0.00 82 1028.6
20260906071310 57 0 0.0 0.0 0.00 0.00 0.00 84 1028.6
20260906070310 57 0 0.0 0.0 0.00 0.00 0.00 86 1028.7
20260906065310 56 180 0.0 2.0 0.00 0.00 0.00 86 1028.6
20260906064310 54 180 0.0 1.0 0.00 0.00 0.00 88 1028.8
20260906063309 53 180 0.0 1.0 0.00 0.00 0.00 89 1028.7
20260906062309 53 180 1.0 3.0 0.00 0.00 0.00 90 1028.5
20260906061309 52 0 0.0 0.0 0.00 0.00 0.00 90 1028.6
20260906060309 51 180 2.0 5.0 0.00 0.00 0.00 90 1028.6
20260906055309 51 90 1.0 4.0 0.00 0.01 0.00 90 1028.7
20260906055025 51 90 1.0 4.0 0.00 0.01 0.00 90 1028.7
20260906054025 50 45 2.0 4.0 0.00 0.01 0.00 90 1028.5
20260906053025 50 45 2.0 4.0 0.00 0.01 0.00 89 1028.3
20260906052024 50 45 0.0 3.0 0.00 0.01 0.00 89 1028.2
20260906051024 50 0 0.0 0.0 0.00 0.01 0.00 89 1028.1
20260906050024 50 0 0.0 0.0 0.00 0.01 0.00 89 1028.0
20260906045024 50 0 0.0 0.0 0.00 0.01 0.00 89 1028.0
20260906044024 50 0 0.0 0.0 0.00 0.01 0.00 89 1027.9
20260906043025 51 45 0.0 1.0 0.00 0.01 0.00 88 1027.9
20260906042025 51 45 0.0 2.0 0.00 0.01 0.00 88 1028.1
20260906041024 51 45 0.0 1.0 0.00 0.01 0.00 88 1028.1
20260906040024 51 45 0.0 1.0 0.00 0.01 0.00 88 1028.0
20260906035024 51 45 0.0 2.0 0.00 0.01 0.00 89 1027.9
20260906034024 51 45 1.0 3.0 0.00 0.01 0.00 88 1027.9
20260906033024 51 45 1.0 3.0 0.00 0.01 0.00 88 1027.8
20260906032026 51 0 0.0 0.0 0.00 0.01 0.00 88 1028.1
20260906031026 51 45 1.0 3.0 0.00 0.01 0.00 87 1028.1
20260906030025 51 45 2.0 3.0 0.00 0.01 0.00 87 1027.9
20260906025025 52 45 2.0 3.0 0.00 0.06 0.00 86 1027.7
20260906024025 52 45 2.0 3.0 0.00 0.06 0.00 85 1027.8
20260906023025 53 45 2.0 3.0 0.00 0.06 0.00 85 1027.8
20260906022025 53 45 2.0 4.0 0.00 0.06 0.00 84 1027.8
20260906021025 53 45 1.0 3.0 0.00 0.06 0.00 83 1027.8
20260906020025 54 45 1.0 3.0 0.00 0.06 0.00 82 1027.8
20260906015025 54 45 1.0 3.0 0.00 0.21 0.00 82 1027.8
20260906014025 54 45 0.0 2.0 0.00 0.21 0.00 82 1027.8
20260906013024 54 45 1.0 3.0 0.00 0.21 0.00 82 1027.7
20260906012024 54 45 2.0 4.0 0.00 0.21 0.00 82 1027.6
20260906011024 54 45 2.0 3.0 0.00 0.21 0.00 83 1027.8
20260906010024 54 45 1.0 3.0 0.00 0.21 0.00 83 1027.9
20260906005024 54 45 3.0 5.0 0.00 0.24 0.00 83 1027.8
20260906004024 54 112 1.0 4.0 0.00 0.24 0.00 83 1027.7
20260906003024 54 0 0.0 0.0 0.00 0.24 0.00 83 1027.8
20260906002026 54 0 0.0 0.0 0.00 0.24 0.00 83 1027.6
20260906001026 55 112 0.0 1.0 0.00 0.24 0.00 82 1027.6
20260906000025 55 112 1.0 2.0 0.00 0.24 0.00 82 1027.4
20260905235025 56 112 2.0 3.0 0.00 0.24 0.00 80 1027.5
20260905234025 56 112 2.0 3.0 0.00 0.24 0.00 79 1027.4
20260905233025 57 0 0.0 0.0 0.00 0.24 0.00 77 1027.2
20260905232025 57 0 0.0 0.0 0.00 0.24 0.00 76 1027.2
20260905231025 57 112 1.0 3.0 0.00 0.24 0.00 76 1027.0
20260905230025 57 135 2.0 4.0 0.00 0.24 0.00 76 1027.1
20260905225025 58 158 1.0 3.0 0.00 0.24 0.00 75 1027.0
20260905224025 59 158 0.0 2.0 0.00 0.24 0.00 74 1026.8
20260905223024 59 158 0.0 1.0 0.00 0.24 0.00 72 1026.9
20260905222024 60 158 0.0 2.0 0.00 0.24 0.00 70 1026.8
20260905221024 61 158 1.0 2.0 0.00 0.24 0.00 68 1026.8